STARLINK-36630, 67703

Orbit data source: Space-Track

STARLINK-36630, 67703 is a payload satellite owned by SpaceX/Seattle (US) in SSO that was launched on Sat, 07 Feb 2026 UTC via an FALCON 9 launch vehicle from the Air Force Western Test Range (AFWTR). Payload-class satellites include a variety of spacecraft equipped with specific instruments for various scientific and technological missions. These include communications satellites like Starlink; space stations such as the ISS; scientific satellites like the Hubble; Earth observation satellites from companies like Planet Labs, Umbra, and HawkEye 360; GPS; miniature CubeSats for education and research; and military/defense satellites.

Loading next visibility...
Identifier
67703, 2026-025L
Orbit
SSO
Country
Flag of USUS
Related business
Manufacturer
SpaceX/Seattle
Mission
Operational spacecraft
Bus & Motor
STARLINK V2MO, Unknown motor
Mass
575 kg wet, ~530 kg dry
Launch date (UTC)
2026-02-07 (1 month ago)
Launch vehicle
FALCON 9
Launch site
Air Force Western Test Range (AFWTR)
Object type
Payload
Rocket body
Debris
Shape & HBR
Unknown
Radar Cross Section
RCS unknown

Expand to show TLE details & history
Last TLE update: 14 hours ago

TLE from 14 hours ago
0 STARLINK-36630
1 67703U 26025L   26071.72643186  .00226988  00000-0  14776-2 0  9993
2 67703  97.2840 183.5411 0001376  45.8876 314.2502 15.75267975  6426
Epoch: 2026-03-12T17:26Z
TLE epoch observation values (Epoch: 2026-03-12T17:26:03.712Z)
Latitude
-0.00007°
Longitude
111.65346°
Altitude
346.392 km
Speed
7.701 km/s
True Right ascension
12h 14m 09s
True Declination
0° 00' 00"
Sunlit
Object was in full shadow at epoch
Visualization orbit readout
Latitude
Unknown
Longitude
Unknown
Altitude
Unknown
Speed
Unknown
Apparent Right ascension
Unknown
Apparent Declination
Unknown
Sunlit
N/A
Visualization observer readout
Local Sidereal Time
12:02:42
Azimuth
Unknown
Elevation
Unknown
Doppler factor
Unknown
Orbital elements
Apogee altitude
341.681 km
Perigee altitude
339.831 km
Semi-major axis
6,718.893 km
Eccentricity
0.00014
Inclination
97.284°
RAAN
183.5411°
Arg. of periapsis
45.8876°
True anomaly
314.2389°
Mean anomaly
314.2502°
Eccentric anomaly
314.24455°
Mean motion
3.94091 °/min
Orbital period
91.35 mins
BSTAR
0.0014776
Loading maneuver chart data...
Computing Atmospheric mass density...
Loading historical data...
Loading historical data...
Loading historical data...
Loading historical data...
Loading historical data...
Loading historical data...
Loading historical data...

Documentation

Showing up to 5 results
|